Location: Smyrna_Hopewell
(35.6500°N, 81.0330°W)
Time: 14:14:26
(UTC-04:00)

Cosmos 2221 - Visible Passes

Search period start: 25 April 2015 00:00
Search period end: 05 May 2015 00:00
Orbit: 595 x 621 km, 82.5° (Epoch: 24 April)

Date Brightness Start Highest point End Pass type
(mag) Time Alt. Az. Time Alt. Az. Time Alt. Az.
25 Apr 3.8 03:57:37 10° N 04:00:13 36° N 04:00:13 36° N visible
26 Apr 4.0 04:11:30 10° NNW 04:13:36 27° NNW 04:13:36 27° NNW visible
27 Apr 5.3 02:48:50 10° NNE 02:50:07 15° NE 02:50:07 15° NE visible
27 Apr 4.5 04:25:38 10° NNW 04:27:01 18° NW 04:27:01 18° NW visible
28 Apr 5.0 03:01:52 10° NNE 03:03:34 20° NNE 03:03:34 20° NNE visible
28 Apr 4.9 04:40:12 10° NW 04:40:27 11° NW 04:40:27 11° NW visible
29 Apr 4.7 03:15:19 10° N 03:17:02 23° N 03:17:02 23° N visible
30 Apr 4.7 03:29:01 10° N 03:30:31 21° N 03:30:31 21° N visible
01 May 4.8 03:42:59 10° NNW 03:44:01 17° NNW 03:44:01 17° NNW visible
02 May 5.4 02:19:46 10° NNE 02:20:38 14° NNE 02:20:38 14° NNE visible
02 May 5.1 03:57:15 10° NW 03:57:32 11° NW 03:57:32 11° NW visible
03 May 5.2 02:33:01 10° N 02:34:11 17° NNE 02:34:11 17° NNE visible
04 May 5.1 02:46:34 10° N 02:47:44 18° N 02:47:44 18° N visible
